Hobart, OK

8:56 PM CDT on August 23, 2017 (GMT -0500)
Hobart Municipal

Weather History for KHBR - June, 2013

Change the Weather History Date:

Wednesday, June 19, 2013

  Actual Average Record
Temperature  
Mean Temperature 78 °F -  
Max Temperature 87 °F 89 °F 109 °F (2011)
Min Temperature 69 °F 65 °F 66 °F (2000)
Cooling Degree Days 13    
Growing Degree Days 28 (Base 50)    
Moisture  
Dew Point 64 °F    
Average Humidity 71    
Maximum Humidity 93    
Minimum Humidity 36    
Precipitation  
Precipitation 0.04 in - - ()
Sea Level Pressure  
Sea Level Pressure 29.91 in    
Wind  
Wind Speed 10 mph (SE)    
Max Wind Speed 38 mph    
Max Gust Speed 46 mph    
Visibility 10 miles    
Events Rain    
Averages and records for this station are not official NWS values.
T = Trace of Precipitation, MM = Missing Value Source: NWS Daily Summary

Daily Weather History Graph

Daily Weather History Graph

Search for Another Location

Airport or City:

Trip Planner

Search our weather history database for the weather conditions in past years. The results will help you decide how hot, cold, wet, or windy it might be!

Date:

Astronomy

Jun. 19, 2013 Rise Set
Actual Time 6:22 AM CDT 8:53 PM CDT
Civil Twilight 5:52 AM CDT 9:22 PM CDT
Nautical Twilight 5:15 AM CDT 9:59 PM CDT
Astronomical Twilight 4:35 AM CDT 10:40 PM CDT
Moon 4:53 PM CDT (6/19) 3:00 AM CDT (6/19)
Length of Visible Light 15h 30m
Length of Day
14h 30m
Waxing Gibbous, 80% of the Moon is Illuminated
Jun 19
Waxing Gibbous
Jun 23
Full
Jun 29
Last Quarter
Jul 8
New
Jul 15
First Quarter

Hourly Weather History & Observations

Time (CDT) Temp. Heat Index Dew Point Humidity Pressure Visibility Wind Dir Wind Speed Gust Speed Precip Events Conditions
12:53 AM 69.1 °F - 64.0 °F 84% 29.96 in 10.0 mi ESE 5.8 mph - N/A   Clear
1:53 AM 69.1 °F - 64.9 °F 87% 29.95 in 10.0 mi SE 8.1 mph - N/A   Clear
2:53 AM 70.0 °F - 64.9 °F 84% 29.94 in 10.0 mi SSE 6.9 mph - N/A   Clear
3:53 AM 70.0 °F - 66.0 °F 87% 29.94 in 10.0 mi SSE 9.2 mph - N/A   Clear
4:53 AM 69.1 °F - 66.0 °F 90% 29.96 in 10.0 mi South 4.6 mph - N/A   Clear
5:53 AM 69.1 °F - 66.9 °F 93% 29.93 in 10.0 mi SE 6.9 mph - N/A   Clear
6:53 AM 69.1 °F - 66.9 °F 93% 29.95 in 10.0 mi South 6.9 mph - N/A   Partly Cloudy
7:53 AM 71.1 °F - 68.0 °F 90% 30.02 in 10.0 mi North 5.8 mph - N/A   Clear
8:53 AM 73.9 °F - 68.0 °F 82% 30.03 in 10.0 mi NNE 5.8 mph - N/A   Partly Cloudy
9:53 AM 72.0 °F - 68.0 °F 87% 30.02 in 9.0 mi North 4.6 mph - 0.00 in Rain Light Rain
10:53 AM 71.1 °F - 68.0 °F 90% 29.91 in 10.0 mi SW 24.2 mph - 0.03 in Rain Light Rain
11:53 AM 71.1 °F - 68.0 °F 90% 29.90 in 9.0 mi SW 32.2 mph 40.3 mph 0.01 in   Scattered Clouds
12:53 PM 72.0 °F - 61.0 °F 68% 29.84 in 10.0 mi SW 38.0 mph 46.0 mph 0.00 in   Mostly Cloudy
1:53 PM 73.9 °F - 59.0 °F 59% 29.91 in 10.0 mi Variable 5.8 mph 19.6 mph N/A   Clear
2:53 PM 79.0 °F - 60.1 °F 52% 29.88 in 10.0 mi SE 5.8 mph - N/A   Clear
3:43 PM 84.2 °F 83.8 °F 59.0 °F 42% 29.91 in 10.0 mi ENE 12.7 mph - N/A   Clear
3:53 PM 86.0 °F 86.1 °F 61.0 °F 43% 29.86 in 10.0 mi NNE 10.4 mph - N/A   Clear
4:53 PM 87.1 °F 87.8 °F 63.0 °F 44% 29.86 in 10.0 mi NE 10.4 mph 16.1 mph N/A   Clear
5:53 PM 86.0 °F 86.1 °F 61.0 °F 43% 29.85 in 10.0 mi SE 10.4 mph 19.6 mph N/A   Clear
6:53 PM 86.0 °F 84.7 °F 55.9 °F 36% 29.85 in 10.0 mi SE 10.4 mph - N/A   Clear
7:53 PM 82.0 °F 82.7 °F 61.0 °F 49% 29.87 in 10.0 mi SSE 11.5 mph - N/A   Clear
8:53 PM 78.1 °F - 62.1 °F 58% 29.87 in 10.0 mi South 6.9 mph - N/A   Mostly Cloudy
9:53 PM 75.9 °F - 64.0 °F 67% 29.87 in 10.0 mi SE 10.4 mph - N/A   Clear
10:53 PM 75.9 °F - 70.0 °F 82% 29.91 in 10.0 mi SSE 10.4 mph - N/A   Mostly Cloudy
11:53 PM 75.9 °F - 70.0 °F 82% 29.88 in 10.0 mi SSE 17.3 mph - N/A   Clear